GW3759 Weather Reports


Display with metric or nautical units.
time (UTC)temp
F
wind
direction
speed
MPH
gust
MPH
rain 1hr
in
rain 24hr
in
rain mn
in
humidity
%
barometer
mb
20260508024508 52 148 1.0 4.0 0.00 0.06 0.05 88 1011.7
20260508023006 52 158 1.0 5.0 0.00 0.06 0.05 87 1011.7
20260508021505 52 171 0.0 4.0 0.00 0.06 0.05 86 1011.7
20260508020004 52 159 2.0 4.0 0.00 0.06 0.05 85 1011.6
20260508014516 53 196 2.0 5.0 0.00 0.06 0.05 85 1011.4
20260508013003 53 166 2.0 6.0 0.00 0.06 0.05 84 1011.3
20260508011504 53 150 2.0 5.0 0.00 0.06 0.05 84 1011.1
20260508010013 53 153 2.0 5.0 0.00 0.06 0.05 82 1011.1
20260508004507 54 138 1.0 5.0 0.00 0.06 0.05 80 1010.9
20260508003005 54 143 1.0 5.0 0.00 0.06 0.05 80 1010.8
20260508001504 55 9 0.0 3.0 0.00 0.06 0.05 78 1010.5
20260508000006 55 168 1.0 6.0 0.00 0.06 0.05 77 1010.2
20260507234515 55 131 2.0 5.0 0.00 0.06 0.05 77 1010.1
20260507233008 56 150 3.0 8.0 0.00 0.06 0.05 75 1010.0
20260507231508 56 172 3.0 7.0 0.00 0.06 0.05 73 1009.9
20260507230009 57 171 3.0 6.0 0.00 0.06 0.05 73 1009.7
20260507224510 57 121 2.0 7.0 0.00 0.06 0.05 75 1009.6
20260507223002 58 121 1.0 11.0 0.00 0.06 0.05 73 1009.6
20260507221503 57 132 3.0 11.0 0.00 0.06 0.05 70 1009.6
20260507220003 57 159 5.0 10.0 0.00 0.06 0.05 64 1009.5
20260507214507 58 135 0.0 5.0 0.00 0.06 0.05 63 1009.5
20260507213004 58 360 0.0 3.0 0.00 0.06 0.05 64 1009.4
20260507211504 57 100 3.0 7.0 0.00 0.06 0.05 67 1009.6
20260507210003 57 61 0.0 4.0 0.00 0.06 0.05 71 1009.5
20260507204503 57 111 2.0 6.0 0.00 0.06 0.05 67 1009.6
20260507203007 57 126 0.0 3.0 0.00 0.06 0.05 69 1009.6
20260507201503 56 246 0.0 3.0 0.00 0.06 0.05 69 1009.8
20260507200007 56 143 1.0 8.0 0.00 0.06 0.05 72 1009.8
20260507194504 56 157 0.0 3.0 0.00 0.06 0.05 70 1009.8
20260507193010 55 140 1.0 8.0 0.00 0.06 0.05 70 1010.3
20260507191504 56 110 2.0 4.0 0.00 0.06 0.05 69 1010.2
20260507190004 55 269 0.0 3.0 0.00 0.06 0.05 69 1010.0
20260507184506 55 286 0.0 3.0 0.00 0.06 0.05 66 1010.6
20260507183009 55 136 0.0 1.0 0.00 0.06 0.05 74 1010.6
20260507181509 55 133 0.0 2.0 0.00 0.06 0.05 67 1010.9
20260507180008 55 5 0.0 3.0 0.00 0.06 0.05 69 1011.0
20260507174504 55 82 0.0 4.0 0.00 0.06 0.05 64 1011.0
20260507173012 54 342 1.0 4.0 0.00 0.06 0.05 62 1011.0
20260507171507 54 323 3.0 8.0 0.00 0.06 0.05 67 1011.2
20260507170013 54 321 0.0 4.0 0.00 0.06 0.05 69 1011.7
20260507164511 54 321 0.0 5.0 0.00 0.06 0.05 66 1011.8
20260507163005 54 317 2.0 8.0 0.00 0.06 0.05 63 1012.1
20260507161509 54 315 1.0 4.0 0.00 0.06 0.05 63 1012.5
20260507160003 54 324 1.0 9.0 0.00 0.06 0.05 62 1012.2
20260507154516 54 325 0.0 7.0 0.00 0.06 0.05 64 1012.1
20260507153023 54 352 3.0 9.0 0.00 0.06 0.05 60 1012.3
20260507151507 54 5 2.0 6.0 0.00 0.06 0.05 63 1012.5
20260507150009 54 5 3.0 8.0 0.00 0.06 0.05 62 1012.2
20260507144510 54 342 3.0 7.0 0.00 0.06 0.05 64 1012.5
20260507143007 54 342 3.0 6.0 0.00 0.07 0.05 65 1012.7
20260507141504 54 360 1.0 5.0 0.00 0.08 0.05 67 1013.0
20260507140011 55 328 2.0 9.0 0.00 0.11 0.05 67 1012.8
20260507134511 55 342 3.0 8.0 0.00 0.12 0.05 71 1012.9
20260507133003 55 315 2.0 13.0 0.00 0.12 0.05 72 1012.8
20260507131503 55 327 4.0 10.0 0.00 0.12 0.05 81 1012.6
20260507130006 55 343 2.0 9.0 0.00 0.13 0.05 83 1012.6
20260507124508 55 344 3.0 6.0 0.00 0.14 0.05 84 1012.7
20260507123003 55 5 2.0 8.0 0.00 0.15 0.05 84 1012.7
20260507121504 55 332 4.0 8.0 0.00 0.15 0.05 84 1012.5
20260507120005 55 301 1.0 8.0 0.00 0.15 0.05 86 1012.2
20260507114503 54 323 1.0 6.0 0.00 0.15 0.05 85 1012.0
20260507113011 54 315 3.0 9.0 0.00 0.15 0.05 85 1012.0
20260507111507 54 270 2.0 7.0 0.00 0.15 0.05 86 1011.6
20260507110004 54 328 2.0 5.0 0.00 0.15 0.05 87 1011.8
20260507104505 54 360 1.0 9.0 0.00 0.15 0.05 87 1011.8
20260507103004 54 320 2.0 6.0 0.00 0.15 0.05 88 1011.8
20260507101504 54 331 1.0 5.0 0.00 0.15 0.05 89 1011.6
20260507100003 54 324 1.0 5.0 0.00 0.15 0.05 89 1011.5
20260507094506 54 352 0.0 3.0 0.00 0.15 0.05 88 1011.7
20260507093008 54 332 1.0 4.0 0.00 0.15 0.05 89 1011.7
20260507091511 54 333 0.0 3.0 0.00 0.15 0.05 88 1011.4
20260507090007 54 352 1.0 5.0 0.00 0.15 0.05 87 1011.3
20260507084503 54 299 0.0 5.0 0.00 0.15 0.05 88 1011.1
20260507083007 54 310 2.0 6.0 0.00 0.15 0.05 87 1011.2
20260507081516 54 343 2.0 5.0 0.01 0.15 0.05 88 1011.3
20260507080015 54 279 2.0 8.0 0.01 0.15 0.05 88 1011.4
20260507074510 54 21 3.0 9.0 0.01 0.15 0.05 88 1010.6
20260507073003 55 342 1.0 9.0 0.01 0.15 0.05 89 1010.5
20260507071504 55 12 3.0 8.0 0.00 0.14 0.04 89 1010.4
20260507070013 56 331 2.0 9.0 0.00 0.14 0.04 90 1010.6
20260507064533 56 330 1.0 11.0 0.00 0.14 0.04 90 1010.7
20260507063022 57 344 3.0 11.0 0.00 0.14 0.04 91 1010.3
20260507061508 58 48 3.0 8.0 0.01 0.14 0.04 92 1010.7
20260507060018 58 352 5.0 10.0 0.02 0.14 0.04 93 1010.2
20260507054507 58 340 0.0 4.0 0.02 0.14 0.04 92 1008.8
20260507053025 59 337 2.0 6.0 0.02 0.14 0.04 91 1009.1
20260507051522 59 293 1.0 8.0 0.02 0.13 0.03 91 1009.9
20260507050008 60 5 4.0 11.0 0.02 0.12 0.02 91 1010.6
20260507044518 61 334 4.0 12.0 0.03 0.12 0.02 90 1010.6
20260507043014 63 352 3.0 8.0 0.03 0.12 0.02 91 1009.8
20260507041523 64 27 0.0 0.0 0.02 0.11 0.01 91 1010.1
20260507040010 64 273 0.0 0.0 0.01 0.10 0.00 90 1010.0
20260507034511 64 273 0.0 0.0 0.00 0.09 0.09 89 1009.9
20260507033020 64 273 0.0 0.0 0.00 0.09 0.09 88 1009.6
20260507031525 64 273 0.0 0.0 0.00 0.09 0.09 88 1009.4
20260507030005 64 273 0.0 0.0 0.00 0.09 0.09 88 1009.8